Wind_Speed
21 19 17 9 8 16 24 27 21 18 13 15 10 15 14 15 24 34 36 42 50 48 45 41 35 36 31 31 30 28 30 28 26 27 27 28 31 35 38 42 44 43 45
21 21 18 10 4 9 21 32 27 20 17 15 19 22 22 25 30 36 38 48 50 47 35 37 38 34 30 32 29 24 25 26 25 28 30 28 31 32 34 38 41 43 45
19 20 19 11 9 12 24 35 30 24 21 22 24 25 29 28 32 34 39 51 41 35 32 34 36 33 32 29 23 20 25 25 25 28 28 29 30 30 31 31 36 39 41
17 20 18 14 10 13 31 36 34 30 26 25 30 34 37 38 41 47 45 40 35 34 31 28 29 29 26 27 25 25 28 28 28 28 28 26 26 25 29 30 31 34 34
15 18 17 15 5 18 35 37 35 34 31 32 38 39 43 43 45 43 37 32 33 33 28 25 25 25 23 23 23 23 21 24 26 25 26 25 27 26 29 29 30 31 29
11 14 13 14 6 22 36 38 35 35 36 40 41 42 36 39 38 33 31 31 32 30 27 21 20 23 24 22 22 23 22 27 26 29 27 25 27 26 27 28 28 29 27
7 9 10 9 10 25 39 38 39 38 42 42 44 40 35 32 29 23 25 24 26 23 23 14 17 20 21 20 20 22 27 30 27 27 24 24 23 22 22 24 23 21 20
7 2 5 4 18 34 40 40 40 41 39 42 41 36 29 21 16 19 17 22 24 22 17 11 19 21 21 20 23 27 28 28 27 25 23 22 21 20 19 17 17 17 17
12 4 2 10 32 37 42 40 41 41 39 41 40 34 29 18 15 12 13 15 17 14 13 17 18 22 21 26 26 27 27 27 25 22 22 19 18 16 15 15 12 9 8
15 10 8 15 32 42 42 36 39 38 41 42 39 34 26 21 16 16 14 10 13 15 13 21 23 22 25 28 26 26 24 24 24 21 18 20 18 14 14 14 12 8 4
23 18 14 18 27 48 41 37 37 39 40 41 40 34 24 26 24 22 17 16 13 10 15 22 25 24 28 31 28 27 24 23 21 18 19 18 16 10 11 3 5 1 3
29 26 20 21 31 46 43 43 39 37 37 38 38 33 29 31 23 16 20 21 18 14 17 22 27 28 32 34 31 26 25 24 20 20 19 15 14 10 7 5 5 7 4
37 33 29 26 28 42 46 45 42 40 41 40 40 34 28 29 21 17 22 21 21 20 22 27 27 30 32 33 31 28 27 22 20 21 19 14 14 14 12 13 9 10 13
49 40 35 35 31 36 48 49 45 44 46 41 39 33 31 27 21 19 26 22 23 24 28 29 29 31 29 30 30 29 26 24 20 18 17 17 17 17 15 15 16 16 17
59 51 42 43 41 39 41 46 46 44 43 39 38 35 33 30 27 23 26 25 25 27 31 30 32 32 31 31 30 26 25 23 21 21 21 21 20 21 20 21 19 19 18
62 60 55 50 49 45 43 42 43 47 47 46 42 40 38 36 33 30 29 29 29 29 35 33 30 31 31 32 32 30 28 26 25 24 26 26 26 25 23 25 25 25 27
57 59 57 56 55 53 50 48 47 47 48 47 43 41 41 39 39 36 33 32 32 30 36 36 35 32 33 32 33 32 30 31 30 29 32 32 32 30 30 30 32 34 36
55 58 60 60 60 58 56 53 51 50 51 51 48 43 42 44 42 43 39 39 39 39 38 40 40 36 36 33 32 32 33 37 38 39 38 36 35 35 35 35 35 38 40
57 61 63 64 65 62 61 58 56 52 53 56 55 50 47 45 47 47 45 42 43 44 43 41 41 40 37 34 31 23 22 28 36 37 40 45 42 42 43 40 39 41 43
60 61 64 66 68 68 65 65 63 59 57 55 56 56 52 48 50 49 47 46 46 48 48 47 45 40 34 30 30 26 30 33 37 34 33 32 34 41 44 44 46 45 45
53 61 64 67 68 72 73 69 67 67 65 62 59 56 56 55 52 51 50 48 48 48 48 49 46 44 40 35 36 39 40 39 37 40 42 44 44 49 51 50 50 49 50
36 49 62 68 70 71 73 75 73 72 70 66 65 62 58 58 58 58 57 54 52 51 51 51 50 46 43 47 46 48 46 45 46 47 47 49 55 53 56 55 54 56 58
35 36 47 61 68 72 74 75 77 77 76 71 66 64 66 62 64 64 63 60 60 58 57 55 55 54 49 49 51 53 50 52 51 52 50 52 58 59 61 60 57 60 64
40 38 37 47 57 67 75 78 79 81 82 80 75 73 71 71 68 68 68 68 68 66 63 61 61 59 57 56 51 54 59 56 51 51 49 52 58 60 60 59 65 70 68
40 44 44 43 48 56 66 79 82 83 86 86 84 82 78 75 73 73 72 71 74 72 70 69 69 68 67 68 64 58 59 62 60 60 64 60 56 62 64 68 68 70 73
41 42 45 50 50 51 58 65 77 86 87 91 90 89 83 82 81 80 77 78 77 78 78 79 77 75 72 72 71 68 63 66 67 67 65 67 63 64 67 70 72 75 78
Wind_Direction
3 350 345 326 244 208 200 191 179 183 196 180 161 159 145 145 148 146 146 141 145 135 132 130 119 127 130 132 124 110 115 116 102 96 99 97 99 97 98 96 95 92 89
357 350 345 343 287 200 193 188 182 173 168 144 122 122 130 142 146 149 146 146 145 139 127 122 121 117 120 131 130 114 112 116 103 103 104 101 100 102 103 103 99 96 93
350 347 345 348 323 204 182 184 175 173 160 136 131 128 135 140 148 146 149 147 138 138 128 127 127 123 116 125 129 120 110 120 116 109 103 99 99 101 109 108 105 106 104
345 343 344 349 342 185 170 177 167 163 150 141 145 139 132 133 131 131 130 135 136 137 136 134 134 134 121 125 127 124 114 116 117 113 108 105 102 100 107 105 106 107 101
349 345 342 353 17 161 162 168 165 157 154 146 145 136 130 129 132 136 138 140 142 141 140 137 139 143 134 128 127 131 123 128 124 119 112 111 103 107 105 108 105 108 101
346 350 340 357 126 154 164 165 165 161 155 155 153 142 136 138 140 141 137 144 144 142 140 144 149 150 147 138 135 140 130 136 130 124 120 116 111 112 110 111 108 109 107
334 357 336 16 159 161 164 165 165 164 158 158 152 148 146 146 142 142 145 151 154 152 140 137 169 170 159 146 145 145 141 142 139 130 129 122 117 112 112 116 117 112 105
258 312 333 75 161 157 166 168 165 168 165 164 160 158 157 154 154 145 149 159 165 162 173 171 182 182 165 166 155 150 147 148 142 137 135 132 129 124 132 130 127 126 128
234 201 255 160 160 163 168 171 169 168 170 175 179 175 179 166 163 174 175 182 191 188 187 184 185 186 179 171 161 159 156 158 158 156 149 149 146 141 136 127 128 129 118
237 227 204 178 183 176 173 175 172 172 176 184 181 183 184 194 195 187 172 188 191 190 179 178 187 178 178 170 168 168 171 171 166 162 156 155 153 147 141 131 128 119 44
227 237 212 191 189 181 181 177 180 183 184 186 185 186 192 192 199 195 222 206 192 200 196 183 186 186 182 179 178 180 181 178 182 182 171 171 169 164 170 167 174 59 7
223 229 226 207 197 188 191 186 187 189 192 196 201 207 206 199 197 233 208 200 207 216 203 187 184 184 186 188 189 186 190 193 193 198 197 193 191 208 224 251 260 281 271
226 223 227 219 201 203 197 192 191 191 197 199 203 207 214 206 219 217 203 205 208 202 187 179 186 190 185 191 190 191 189 198 201 203 200 208 224 236 248 249 260 265 277
228 228 226 221 221 205 202 197 199 199 203 207 209 211 211 217 225 212 207 209 202 196 188 181 179 179 180 183 183 188 193 198 201 206 217 228 240 245 248 251 256 260 264
230 230 223 229 216 218 211 204 205 205 205 208 214 219 215 217 221 216 207 210 207 199 194 188 183 187 185 185 187 193 193 199 210 219 227 229 234 245 253 260 264 271 275
232 232 232 221 223 222 217 214 210 208 210 209 211 215 216 219 220 218 215 207 205 208 199 198 199 198 195 195 200 206 209 214 220 229 231 235 240 251 262 262 267 275 279
226 230 222 218 218 222 220 218 219 215 213 215 213 217 218 222 223 222 221 219 216 215 211 211 208 203 207 209 214 221 227 230 236 242 238 237 245 252 261 270 275 279 281
221 228 225 216 217 219 222 222 221 222 221 218 219 219 223 226 228 223 222 221 220 220 218 218 219 218 219 222 228 234 242 250 252 248 248 248 250 260 264 272 273 280 284
226 224 229 223 217 217 220 224 223 226 228 227 223 225 225 229 228 225 226 221 219 221 221 223 225 226 227 231 233 242 263 293 269 264 258 258 257 258 262 268 279 286 289
230 227 227 229 223 221 220 222 227 227 230 231 232 231 230 228 229 228 227 224 219 218 220 220 221 220 220 225 232 256 254 270 281 262 259 259 271 267 269 271 273 284 288
231 231 230 229 230 225 226 227 226 228 230 232 233 232 230 229 225 225 224 223 223 221 221 224 224 227 232 234 237 251 253 257 258 263 266 269 273 275 281 281 280 279 283
235 233 232 230 231 231 229 229 228 227 228 230 231 233 233 230 225 223 224 223 224 226 226 226 225 222 227 243 247 254 251 249 258 265 270 270 276 279 280 281 279 280 283
242 240 234 233 232 231 232 230 229 229 228 228 229 232 234 233 229 228 227 224 225 225 226 227 229 226 231 245 251 252 251 256 253 263 270 276 279 276 279 279 278 281 283
247 246 244 237 233 233 231 231 229 228 229 228 228 232 232 232 233 232 232 231 228 228 230 231 231 230 237 243 248 254 255 256 254 258 264 270 271 269 271 274 276 280 282
250 249 248 244 241 236 233 231 231 231 230 231 230 231 233 235 235 235 235 236 236 233 232 234 235 237 239 242 245 250 254 257 258 257 260 264 263 270 267 272 278 279 280
255 252 248 245 245 241 238 234 233 232 233 232 233 232 230 236 237 238 237 238 239 240 241 238 239 240 243 246 247 250 252 257 258 258 260 261 267 268 271 269 269 270 271
Height
10920 10918 10915 10913 10912 10914 10917 10922 10926 10928 10930 10930 10932 10932 10932 10934 10937 10941 10945 10949 10954 10959 10964 10966 10968 10972 10973 10975 10977 10977 10978 10980 10981 10982 10982 10981 10980 10979 10977 10975 10974 10973 10971
10919 10916 10913 10910 10908 10909 10913 10919 10925 10928 10931 10933 10932 10932 10935 10938 10941 10945 10951 10955 10960 10965 10968 10970 10973 10975 10976 10979 10980 10981 10982 10984 10985 10986 10986 10985 10985 10984 10984 10982 10981 10980 10979
10919 10915 10913 10908 10905 10904 10909 10917 10924 10928 10933 10935 10934 10936 10938 10942 10946 10950 10956 10962 10967 10971 10973 10975 10977 10979 10980 10982 10984 10984 10985 10987 10988 10989 10990 10990 10989 10989 10989 10988 10987 10986 10985
10920 10915 10912 10907 10902 10901 10906 10917 10923 10929 10934 10938 10940 10941 10943 10948 10953 10958 10962 10968 10972 10974 10977 10980 10982 10983 10984 10986 10987 10988 10988 10991 10992 10993 10994 10994 10994 10993 10993 10993 10994 10993 10991
10921 10916 10911 10907 10903 10902 10909 10920 10926 10930 10937 10941 10944 10947 10950 10955 10959 10964 10969 10972 10976 10977 10980 10983 10985 10987 10988 10989 10990 10992 10992 10993 10995 10995 10996 10998 10998 10998 10998 10998 10999 10999 10998
10921 10918 10914 10910 10908 10909 10915 10922 10929 10934 10939 10943 10946 10950 10956 10961 10966 10970 10973 10976 10979 10981 10983 10986 10988 10989 10990 10991 10992 10994 10995 10997 10999 10999 11000 11002 11002 11003 11003 11003 11004 11004 11004
10921 10920 10916 10914 10913 10914 10921 10926 10931 10937 10942 10946 10949 10954 10959 10965 10969 10973 10976 10979 10983 10984 10986 10988 10989 10991 10993 10995 10996 10998 10999 11001 11003 11003 11004 11006 11006 11007 11008 11008 11008 11008 11009
10921 10920 10919 10918 10918 10920 10926 10929 10933 10939 10944 10949 10952 10957 10960 10965 10969 10972 10976 10980 10982 10985 10987 10989 10989 10991 10995 10997 10999 11001 11003 11005 11007 11007 11008 11008 11008 11009 11011 11011 11012 11012 11012
10920 10920 10922 10923 10924 10926 10929 10933 10936 10940 10945 10951 10954 10957 10962 10966 10969 10973 10977 10979 10982 10984 10986 10988 10989 10992 10995 10998 11000 11003 11005 11008 11009 11010 11010 11010 11010 11010 11012 11013 11014 11015 11015
10918 10920 10922 10925 10926 10928 10931 10935 10940 10943 10946 10949 10954 10958 10962 10966 10970 10973 10976 10978 10980 10983 10985 10986 10988 10991 10995 10998 11000 11004 11006 11007 11009 11010 11011 11012 11012 11012 11013 11013 11015 11016 11015
10914 10918 10921 10924 10926 10929 10931 10935 10941 10945 10948 10951 10954 10959 10962 10965 10968 10971 10973 10976 10978 10981 10982 10984 10986 10989 10993 10997 11000 11002 11005 11007 11009 11010 11011 11012 11013 11014 11014 11015 11016 11016 11016
10910 10912 10917 10920 10925 10927 10929 10931 10936 10942 10947 10951 10955 10958 10962 10964 10967 10969 10969 10972 10975 10977 10979 10981 10983 10986 10989 10994 10998 11001 11004 11006 11008 11009 11010 11011 11013 11013 11013 11014 11014 11014 11014
10902 10906 10911 10915 10919 10923 10925 10930 10932 10938 10943 10947 10951 10955 10959 10962 10965 10967 10967 10969 10972 10975 10977 10979 10982 10984 10987 10990 10994 10998 11002 11004 11006 11008 11009 11010 11011 11012 11011 11011 11012 11012 11012
10892 10899 10903 10908 10912 10916 10920 10924 10929 10932 10937 10942 10946 10950 10954 10958 10962 10964 10965 10967 10969 10972 10974 10976 10978 10982 10986 10989 10992 10996 10998 11001 11004 11006 11007 11009 11009 11009 11009 11009 11009 11009 11009
10880 10889 10895 10900 10905 10909 10914 10919 10924 10928 10932 10937 10942 10946 10949 10951 10955 10959 10962 10964 10967 10969 10972 10975 10978 10980 10983 10985 10988 10992 10995 10997 11000 11002 11003 11005 11006 11005 11005 11005 11005 11005 11005
10867 10876 10885 10891 10895 10902 10905 10910 10916 10921 10926 10929 10934 10940 10943 10946 10950 10954 10958 10961 10964 10967 10970 10972 10974 10977 10980 10983 10985 10988 10991 10993 10995 10996 10998 10999 10999 11000 11000 11000 10999 10999 10998
10855 10862 10872 10880 10886 10891 10896 10902 10908 10912 10917 10923 10927 10932 10936 10940 10944 10947 10951 10955 10959 10963 10967 10969 10971 10973 10975 10979 10982 10985 10987 10989 10989 10990 10991 10992 10992 10993 10993 10993 10993 10992 10991
10845 10850 10857 10867 10873 10880 10886 10892 10899 10904 10908 10913 10919 10924 10928 10933 10938 10941 10943 10948 10952 10956 10960 10964 10967 10969 10971 10974 10977 10980 10983 10983 10983 10983 10984 10984 10985 10985 10985 10985 10985 10984 10982
10832 10838 10844 10852 10861 10868 10875 10881 10887 10894 10900 10904 10909 10914 10919 10924 10928 10932 10936 10939 10943 10947 10951 10956 10959 10962 10966 10969 10970 10972 10974 10975 10975 10974 10974 10976 10977 10977 10977 10977 10975 10974 10972
10820 10826 10832 10838 10846 10855 10862 10868 10874 10881 10887 10892 10898 10904 10909 10913 10918 10923 10927 10930 10934 10937 10941 10945 10950 10954 10957 10961 10963 10964 10964 10964 10963 10963 10964 10966 10966 10967 10967 10966 10964 10962 10961
10806 10812 10818 10825 10831 10839 10848 10854 10861 10867 10874 10880 10886 10891 10897 10901 10905 10911 10916 10920 10924 10927 10931 10937 10940 10944 10947 10949 10952 10953 10953 10953 10953 10953 10954 10954 10954 10954 10952 10952 10951 10950 10947
10794 10797 10802 10808 10816 10823 10830 10838 10847 10852 10858 10865 10872 10878 10883 10889 10894 10898 10904 10908 10913 10917 10921 10924 10928 10931 10934 10938 10939 10939 10940 10942 10942 10942 10943 10942 10942 10940 10939 10937 10936 10935 10933
10782 10784 10787 10792 10798 10805 10812 10821 10829 10837 10843 10851 10856 10862 10868 10875 10880 10885 10891 10897 10900 10904 10908 10911 10915 10918 10920 10923 10925 10926 10928 10929 10930 10931 10930 10929 10927 10925 10923 10922 10920 10918 10916
10771 10773 10775 10777 10781 10787 10793 10801 10808 10818 10825 10833 10840 10844 10850 10859 10865 10871 10878 10882 10886 10890 10894 10898 10901 10903 10906 10909 10911 10913 10915 10916 10916 10917 10915 10916 10914 10912 10910 10907 10903 10901 10899
10758 10760 10762 10763 10765 10769 10774 10781 10789 10798 10803 10812 10820 10826 10834 10842 10848 10855 10862 10867 10871 10875 10880 10882 10885 10888 10890 10892 10895 10897 10898 10899 10900 10901 10901 10901 10900 10899 10895 10893 10889 10884 10878
10743 10746 10747 10749 10750 10752 10756 10761 10768 10777 10783 10792 10800 10808 10817 10824 10830 10835 10842 10849 10854 10858 10862 10863 10867 10873 10875 10876 10879 10881 10882 10884 10884 10885 10883 10883 10883 10882 10879 10875 10870 10865 10860